QPF
0.12 0.09 0.06 0.05 0.05 0.04 0.04 0.03 0.03 0.03 0.02 0.01 0.01 0.00 0.00 0.00 0.00 0.00 0.00 0.00 0.00 0.00 0.00 0.00 0.00 0.00 0.00 0.00 0.00 0.00 0.00 0.00 0.00 0.01 0.01 0.01 0.02 0.06
0.11 0.10 0.08 0.07 0.06 0.05 0.04 0.04 0.04 0.03 0.02 0.01 0.01 0.00 0.00 0.00 0.00 0.00 0.00 0.00 0.00 0.00 0.00 0.00 0.00 0.00 0.00 0.00 0.00 0.00 0.00 0.00 0.00 0.01 0.01 0.01 0.02 0.07
0.11 0.10 0.09 0.08 0.07 0.06 0.05 0.04 0.04 0.03 0.02 0.02 0.01 0.01 0.01 0.00 0.00 0.00 0.00 0.00 0.00 0.00 0.00 0.00 0.00 0.00 0.00 0.00 0.00 0.00 0.00 0.00 0.01 0.01 0.01 0.01 0.01 0.03
0.11 0.10 0.09 0.08 0.07 0.06 0.05 0.04 0.03 0.03 0.02 0.02 0.02 0.01 0.01 0.01 0.00 0.00 0.00 0.00 0.00 0.00 0.00 0.00 0.00 0.00 0.00 0.00 0.00 0.00 0.00 0.00 0.01 0.01 0.01 0.01 0.01 0.02
0.13 0.11 0.09 0.08 0.08 0.07 0.06 0.05 0.04 0.03 0.02 0.02 0.01 0.01 0.00 0.00 0.00 0.00 0.00 0.00 0.00 0.00 0.00 0.00 0.00 0.00 0.00 0.00 0.00 0.00 0.00 0.01 0.01 0.01 0.01 0.02 0.03 0.03
0.13 0.13 0.11 0.09 0.07 0.07 0.06 0.05 0.03 0.02 0.02 0.02 0.01 0.01 0.00 0.00 0.00 0.00 0.00 0.00 0.00 0.00 0.00 0.00 0.00 0.00 0.00 0.00 0.00 0.00 0.00 0.01 0.01 0.01 0.01 0.02 0.02 0.02
0.10 0.10 0.09 0.08 0.07 0.06 0.05 0.04 0.03 0.02 0.02 0.01 0.01 0.00 0.00 0.00 0.00 0.00 0.00 0.00 0.00 0.00 0.00 0.00 0.00 0.00 0.00 0.00 0.00 0.00 0.00 0.01 0.01 0.01 0.01 0.01 0.01 0.03
0.06 0.05 0.05 0.06 0.06 0.07 0.05 0.04 0.03 0.02 0.01 0.01 0.00 0.00 0.00 0.00 0.00 0.00 0.00 0.00 0.00 0.00 0.00 0.00 0.00 0.00 0.00 0.00 0.00 0.00 0.00 0.01 0.01 0.01 0.01 0.01 0.01 0.01
0.05 0.04 0.03 0.03 0.04 0.04 0.05 0.05 0.04 0.02 0.02 0.01 0.01 0.01 0.01 0.01 0.01 0.01 0.01 0.01 0.00 0.00 0.00 0.00 0.00 0.00 0.00 0.00 0.00 0.00 0.00 0.00 0.01 0.01 0.01 0.01 0.01 0.01
0.06 0.05 0.04 0.03 0.02 0.02 0.03 0.03 0.03 0.02 0.02 0.01 0.01 0.01 0.01 0.01 0.01 0.01 0.01 0.01 0.00 0.00 0.00 0.00 0.00 0.00 0.00 0.00 0.00 0.00 0.00 0.00 0.00 0.01 0.01 0.02 0.02 0.02
0.07 0.06 0.05 0.04 0.04 0.04 0.03 0.03 0.03 0.03 0.02 0.02 0.02 0.01 0.01 0.02 0.01 0.01 0.01 0.01 0.00 0.00 0.00 0.00 0.00 0.00 0.00 0.00 0.00 0.00 0.00 0.00 0.00 0.00 0.01 0.02 0.01 0.01
0.05 0.05 0.06 0.05 0.05 0.05 0.04 0.04 0.04 0.03 0.02 0.02 0.02 0.01 0.01 0.01 0.01 0.01 0.00 0.00 0.00 0.00 0.00 0.00 0.00 0.00 0.00 0.00 0.00 0.00 0.00 0.00 0.00 0.00 0.00 0.01 0.01 0.00
0.04 0.04 0.04 0.06 0.06 0.05 0.04 0.04 0.04 0.04 0.04 0.03 0.03 0.02 0.02 0.01 0.01 0.01 0.00 0.00 0.00 0.00 0.00 0.00 0.00 0.00 0.00 0.00 0.00 0.00 0.00 0.00 0.00 0.00 0.00 0.00 0.00 0.00
0.03 0.03 0.04 0.06 0.07 0.07 0.07 0.06 0.05 0.05 0.04 0.04 0.03 0.03 0.02 0.02 0.01 0.01 0.00 0.00 0.00 0.00 0.00 0.00 0.00 0.00 0.00 0.00 0.00 0.00 0.00 0.00 0.00 0.00 0.00 0.00 0.00 0.00
0.05 0.05 0.05 0.07 0.08 0.08 0.08 0.07 0.06 0.05 0.04 0.03 0.02 0.02 0.02 0.02 0.01 0.01 0.00 0.00 0.00 0.00 0.00 0.00 0.00 0.00 0.00 0.00 0.00 0.00 0.00 0.00 0.00 0.00 0.00 0.00 0.00 0.00
0.07 0.07 0.07 0.07 0.08 0.08 0.08 0.07 0.06 0.04 0.04 0.03 0.02 0.02 0.01 0.01 0.01 0.00 0.00 0.00 0.00 0.00 0.00 0.00 0.00 0.00 0.00 0.00 0.00 0.00 0.00 0.00 0.00 0.00 0.00 0.00 0.00 0.00
0.09 0.08 0.08 0.07 0.07 0.07 0.07 0.06 0.05 0.04 0.04 0.03 0.03 0.02 0.01 0.01 0.00 0.00 0.00 0.00 0.00 0.00 0.00 0.00 0.00 0.00 0.00 0.00 0.00 0.00 0.00 0.00 0.00 0.00 0.00 0.00 0.00 0.00
0.12 0.11 0.09 0.07 0.06 0.06 0.06 0.06 0.06 0.05 0.04 0.03 0.02 0.01 0.01 0.00 0.00 0.00 0.00 0.00 0.00 0.00 0.00 0.00 0.00 0.00 0.00 0.00 0.00 0.00 0.00 0.00 0.00 0.00 0.00 0.00 0.00 0.00
0.12 0.09 0.08 0.07 0.07 0.07 0.07 0.07 0.06 0.05 0.05 0.04 0.03 0.02 0.01 0.01 0.01 0.00 0.00 0.00 0.00 0.00 0.00 0.00 0.00 0.00 0.00 0.00 0.00 0.00 0.00 0.00 0.00 0.00 0.00 0.00 0.00 0.00
0.09 0.07 0.06 0.06 0.07 0.08 0.08 0.08 0.08 0.07 0.06 0.05 0.04 0.02 0.02 0.01 0.01 0.00 0.00 0.00 0.00 0.00 0.00 0.00 0.00 0.00 0.00 0.00 0.00 0.00 0.00 0.00 0.00 0.00 0.00 0.00 0.00 0.00
0.06 0.06 0.06 0.06 0.07 0.07 0.08 0.09 0.09 0.08 0.07 0.06 0.04 0.03 0.02 0.01 0.01 0.00 0.00 0.00 0.01 0.00 0.00 0.00 0.00 0.00 0.00 0.01 0.00 0.00 0.00 0.00 0.00 0.00 0.00 0.00 0.00 0.00
0.06 0.06 0.07 0.07 0.07 0.08 0.08 0.09 0.10 0.09 0.08 0.07 0.05 0.04 0.02 0.02 0.01 0.01 0.01 0.01 0.01 0.00 0.01 0.01 0.01 0.01 0.01 0.01 0.00 0.00 0.00 0.00 0.00 0.00 0.00 0.00 0.00 0.00
0.07 0.07 0.08 0.08 0.08 0.08 0.09 0.09 0.09 0.08 0.07 0.06 0.04 0.03 0.03 0.02 0.01 0.01 0.01 0.01 0.01 0.01 0.01 0.01 0.02 0.01 0.01 0.01 0.01 0.01 0.00 0.00 0.00 0.00 0.00 0.00 0.00 0.00
MSLP
1011.84 1012.18 1012.53 1012.90 1013.31 1013.76 1014.26 1014.82 1015.43 1016.08 1016.73 1017.38 1017.96 1018.46 1018.85 1019.12 1019.29 1019.38 1019.41 1019.44 1019.50 1019.60 1019.75 1019.95 1020.17 1020.37 1020.54 1020.65 1020.69 1020.64 1020.52 1020.34 1020.11 1019.85 1019.54 1019.20 1018.81 1018.38
1011.17 1011.47 1011.81 1012.18 1012.60 1013.09 1013.64 1014.26 1014.95 1015.69 1016.44 1017.17 1017.84 1018.41 1018.86 1019.18 1019.39 1019.51 1019.58 1019.63 1019.71 1019.82 1019.98 1020.18 1020.38 1020.57 1020.72 1020.81 1020.81 1020.74 1020.61 1020.43 1020.21 1019.95 1019.65 1019.32 1018.93 1018.47
1010.49 1010.78 1011.11 1011.49 1011.93 1012.45 1013.05 1013.75 1014.51 1015.33 1016.17 1016.98 1017.71 1018.34 1018.84 1019.21 1019.45 1019.60 1019.69 1019.76 1019.85 1019.97 1020.14 1020.33 1020.53 1020.70 1020.82 1020.88 1020.86 1020.78 1020.64 1020.46 1020.25 1020.01 1019.75 1019.43 1019.05 1018.59
1009.88 1010.15 1010.48 1010.86 1011.33 1011.88 1012.53 1013.28 1014.11 1014.99 1015.88 1016.74 1017.53 1018.19 1018.73 1019.13 1019.40 1019.57 1019.69 1019.79 1019.90 1020.04 1020.21 1020.40 1020.59 1020.74 1020.85 1020.88 1020.85 1020.76 1020.62 1020.45 1020.26 1020.06 1019.82 1019.54 1019.19 1018.74
1009.37 1009.64 1009.96 1010.36 1010.84 1011.42 1012.10 1012.87 1013.73 1014.63 1015.55 1016.43 1017.24 1017.93 1018.48 1018.90 1019.21 1019.42 1019.57 1019.70 1019.85 1020.01 1020.20 1020.40 1020.58 1020.73 1020.82 1020.84 1020.80 1020.70 1020.57 1020.41 1020.25 1020.09 1019.89 1019.65 1019.33 1018.91
1009.03 1009.28 1009.61 1010.01 1010.49 1011.07 1011.75 1012.52 1013.37 1014.26 1015.17 1016.04 1016.83 1017.52 1018.09 1018.53 1018.86 1019.11 1019.31 1019.50 1019.69 1019.90 1020.12 1020.34 1020.53 1020.68 1020.77 1020.78 1020.73 1020.63 1020.50 1020.37 1020.24 1020.10 1019.95 1019.75 1019.48 1019.09
1008.86 1009.11 1009.42 1009.81 1010.29 1010.85 1011.50 1012.24 1013.05 1013.90 1014.75 1015.58 1016.34 1017.00 1017.56 1018.02 1018.38 1018.68 1018.95 1019.20 1019.46 1019.72 1019.99 1020.25 1020.46 1020.62 1020.71 1020.72 1020.66 1020.57 1020.45 1020.32 1020.21 1020.11 1020.00 1019.84 1019.61 1019.26
1008.86 1009.09 1009.39 1009.77 1010.22 1010.75 1011.36 1012.04 1012.78 1013.56 1014.34 1015.09 1015.80 1016.43 1016.97 1017.44 1017.84 1018.20 1018.53 1018.85 1019.18 1019.52 1019.84 1020.14 1020.39 1020.57 1020.66 1020.68 1020.62 1020.52 1020.40 1020.29 1020.19 1020.11 1020.03 1019.91 1019.72 1019.43
1008.96 1009.18 1009.47 1009.82 1010.25 1010.74 1011.30 1011.91 1012.58 1013.27 1013.97 1014.65 1015.29 1015.88 1016.41 1016.88 1017.31 1017.72 1018.11 1018.51 1018.91 1019.32 1019.70 1020.05 1020.33 1020.53 1020.64 1020.65 1020.60 1020.50 1020.38 1020.27 1020.18 1020.11 1020.05 1019.97 1019.82 1019.58
1009.09 1009.29 1009.57 1009.91 1010.31 1010.77 1011.28 1011.84 1012.44 1013.06 1013.69 1014.30 1014.89 1015.43 1015.94 1016.42 1016.87 1017.32 1017.77 1018.22 1018.69 1019.15 1019.59 1019.97 1020.28 1020.50 1020.63 1020.65 1020.60 1020.50 1020.38 1020.27 1020.18 1020.11 1020.06 1020.01 1019.90 1019.72
1009.17 1009.36 1009.62 1009.94 1010.33 1010.77 1011.26 1011.79 1012.34 1012.92 1013.49 1014.06 1014.61 1015.13 1015.62 1016.10 1016.57 1017.04 1017.52 1018.02 1018.53 1019.02 1019.49 1019.90 1020.24 1020.48 1020.61 1020.65 1020.61 1020.51 1020.39 1020.28 1020.19 1020.13 1020.09 1020.05 1019.98 1019.85
1009.13 1009.29 1009.54 1009.86 1010.24 1010.68 1011.17 1011.69 1012.24 1012.80 1013.36 1013.91 1014.45 1014.96 1015.45 1015.93 1016.40 1016.89 1017.38 1017.89 1018.41 1018.92 1019.40 1019.83 1020.17 1020.43 1020.58 1020.63 1020.61 1020.52 1020.41 1020.30 1020.22 1020.16 1020.13 1020.10 1020.07 1019.99
1008.95 1009.07 1009.30 1009.61 1009.99 1010.44 1010.94 1011.49 1012.06 1012.64 1013.23 1013.80 1014.34 1014.87 1015.37 1015.85 1016.33 1016.82 1017.31 1017.82 1018.33 1018.83 1019.30 1019.72 1020.07 1020.34 1020.51 1020.58 1020.58 1020.52 1020.43 1020.34 1020.25 1020.20 1020.17 1020.16 1020.16 1020.12
1008.62 1008.70 1008.88 1009.17 1009.55 1010.01 1010.54 1011.13 1011.74 1012.38 1013.01 1013.63 1014.22 1014.78 1015.30 1015.81 1016.29 1016.77 1017.25 1017.74 1018.23 1018.71 1019.16 1019.57 1019.93 1020.20 1020.39 1020.50 1020.53 1020.50 1020.44 1020.36 1020.30 1020.25 1020.22 1020.22 1020.22 1020.22
1008.21 1008.21 1008.34 1008.58 1008.94 1009.41 1009.96 1010.58 1011.25 1011.94 1012.64 1013.33 1013.98 1014.59 1015.16 1015.69 1016.20 1016.68 1017.15 1017.61 1018.08 1018.53 1018.97 1019.37 1019.72 1020.01 1020.22 1020.36 1020.43 1020.45 1020.42 1020.37 1020.32 1020.28 1020.25 1020.24 1020.25 1020.25
1007.75 1007.67 1007.71 1007.89 1008.21 1008.65 1009.20 1009.85 1010.56 1011.32 1012.09 1012.84 1013.57 1014.25 1014.87 1015.45 1015.98 1016.47 1016.94 1017.40 1017.84 1018.28 1018.70 1019.10 1019.45 1019.76 1020.01 1020.19 1020.30 1020.36 1020.37 1020.35 1020.31 1020.27 1020.23 1020.21 1020.20 1020.20
1007.33 1007.14 1007.08 1007.17 1007.41 1007.80 1008.33 1008.97 1009.70 1010.50 1011.33 1012.15 1012.95 1013.70 1014.39 1015.02 1015.59 1016.11 1016.60 1017.06 1017.51 1017.94 1018.36 1018.77 1019.14 1019.47 1019.75 1019.97 1020.13 1020.23 1020.27 1020.27 1020.25 1020.20 1020.15 1020.10 1020.06 1020.03
1006.98 1006.67 1006.50 1006.48 1006.62 1006.93 1007.40 1008.01 1008.74 1009.55 1010.41 1011.28 1012.14 1012.96 1013.72 1014.41 1015.03 1015.60 1016.12 1016.61 1017.07 1017.52 1017.96 1018.38 1018.77 1019.13 1019.44 1019.70 1019.90 1020.03 1020.10 1020.12 1020.10 1020.05 1019.97 1019.90 1019.82 1019.76
1006.70 1006.29 1006.00 1005.86 1005.89 1006.11 1006.49 1007.05 1007.74 1008.53 1009.40 1010.31 1011.21 1012.08 1012.90 1013.65 1014.33 1014.95 1015.52 1016.05 1016.55 1017.02 1017.49 1017.93 1018.35 1018.74 1019.08 1019.37 1019.60 1019.76 1019.85 1019.89 1019.87 1019.81 1019.72 1019.62 1019.52 1019.43
1006.48 1005.98 1005.59 1005.34 1005.26 1005.37 1005.67 1006.14 1006.78 1007.54 1008.40 1009.31 1010.23 1011.13 1012.00 1012.80 1013.54 1014.21 1014.83 1015.40 1015.94 1016.45 1016.95 1017.42 1017.86 1018.28 1018.65 1018.96 1019.22 1019.40 1019.52 1019.57 1019.56 1019.50 1019.41 1019.30 1019.18 1019.07
1006.27 1005.70 1005.23 1004.89 1004.72 1004.73 1004.94 1005.34 1005.91 1006.63 1007.45 1008.35 1009.27 1010.19 1011.08 1011.92 1012.70 1013.42 1014.08 1014.69 1015.27 1015.81 1016.33 1016.83 1017.30 1017.74 1018.13 1018.47 1018.74 1018.95 1019.09 1019.16 1019.17 1019.13 1019.05 1018.95 1018.84 1018.73
1006.01 1005.41 1004.89 1004.49 1004.24 1004.19 1004.33 1004.65 1005.17 1005.83 1006.61 1007.48 1008.39 1009.31 1010.20 1011.06 1011.86 1012.61 1013.29 1013.94 1014.54 1015.11 1015.65 1016.17 1016.66 1017.11 1017.52 1017.88 1018.18 1018.41 1018.58 1018.69 1018.74 1018.73 1018.69 1018.62 1018.54 1018.45
1005.67 1005.05 1004.51 1004.07 1003.79 1003.69 1003.78 1004.06 1004.52 1005.14 1005.88 1006.72 1007.60 1008.50 1009.38 1010.24 1011.04 1011.79 1012.49 1013.15 1013.76 1014.34 1014.90 1015.43 1015.93 1016.40 1016.83 1017.21 1017.54 1017.81 1018.02 1018.17 1018.27 1018.33 1018.34 1018.33 1018.30 1018.26
Thickness
5607 5607 5605 5604 5603 5602 5601 5599 5593 5587 5583 5579 5575 5574 5572 5571 5569 5568 5566 5564 5562 5559 5557 5554 5551 5548 5545 5542 5540 5537 5535 5533 5531 5530 5529 5529 5530 5530
5598 5598 5597 5596 5595 5593 5592 5590 5587 5584 5578 5571 5567 5565 5562 5560 5558 5557 5556 5553 5551 5549 5546 5544 5541 5538 5535 5532 5530 5528 5525 5523 5522 5521 5520 5520 5521 5522
5589 5589 5588 5587 5585 5583 5581 5579 5577 5574 5569 5561 5558 5555 5552 5550 5548 5547 5545 5543 5541 5539 5536 5533 5531 5528 5525 5522 5520 5518 5515 5513 5512 5511 5511 5511 5512 5513
5581 5580 5578 5576 5575 5574 5571 5569 5567 5565 5561 5553 5548 5545 5543 5541 5539 5536 5534 5533 5531 5529 5526 5523 5521 5518 5515 5512 5510 5508 5505 5503 5502 5502 5501 5502 5503 5504
5571 5570 5570 5567 5565 5563 5561 5559 5557 5553 5550 5546 5540 5536 5532 5530 5528 5525 5523 5522 5520 5519 5516 5514 5511 5508 5505 5502 5499 5498 5496 5494 5493 5493 5492 5493 5494 5496
5560 5560 5559 5558 5556 5554 5551 5549 5546 5542 5538 5535 5531 5526 5523 5520 5518 5515 5512 5510 5509 5508 5506 5504 5501 5498 5495 5492 5490 5488 5486 5484 5483 5483 5484 5484 5486 5488
5548 5547 5547 5546 5545 5544 5542 5539 5536 5532 5528 5524 5521 5517 5514 5511 5510 5507 5504 5500 5498 5496 5495 5493 5491 5488 5485 5483 5480 5478 5477 5475 5474 5474 5474 5476 5477 5479
5534 5533 5533 5533 5533 5532 5531 5529 5527 5524 5520 5516 5513 5511 5508 5505 5501 5498 5494 5490 5487 5486 5484 5482 5480 5477 5475 5473 5471 5470 5468 5467 5466 5466 5466 5467 5468 5470
5519 5519 5519 5519 5519 5519 5518 5517 5515 5515 5513 5511 5507 5504 5500 5498 5494 5489 5486 5483 5480 5478 5474 5471 5469 5467 5466 5464 5463 5461 5460 5458 5457 5457 5457 5458 5459 5461
5504 5505 5505 5505 5505 5505 5504 5502 5501 5501 5501 5499 5497 5495 5493 5490 5487 5484 5479 5472 5468 5466 5465 5462 5459 5458 5457 5455 5454 5452 5451 5450 5449 5448 5449 5449 5451 5453
5488 5490 5491 5491 5492 5492 5489 5487 5486 5485 5486 5486 5486 5484 5482 5480 5477 5472 5467 5462 5458 5455 5455 5454 5450 5448 5446 5446 5445 5444 5443 5442 5442 5441 5441 5442 5443 5445
5471 5473 5476 5477 5478 5478 5476 5475 5473 5472 5471 5471 5471 5470 5469 5468 5466 5464 5461 5454 5450 5447 5446 5444 5441 5439 5436 5437 5436 5436 5434 5434 5434 5433 5433 5434 5435 5437
5453 5456 5459 5462 5463 5463 5463 5463 5463 5461 5458 5457 5456 5455 5454 5453 5452 5451 5451 5448 5443 5441 5439 5436 5431 5429 5427 5426 5427 5427 5426 5426 5426 5425 5426 5426 5427 5429
5437 5440 5443 5446 5447 5449 5449 5450 5449 5448 5444 5443 5442 5442 5441 5440 5439 5439 5438 5437 5436 5434 5432 5430 5425 5422 5418 5416 5417 5418 5418 5418 5417 5417 5418 5418 5419 5420
5419 5423 5427 5430 5432 5434 5436 5436 5436 5434 5433 5432 5432 5432 5431 5429 5427 5425 5424 5424 5423 5422 5421 5420 5418 5415 5412 5410 5409 5409 5409 5410 5410 5410 5410 5411 5411 5412
5400 5405 5410 5414 5417 5420 5422 5423 5423 5423 5423 5423 5422 5420 5417 5416 5415 5414 5413 5412 5410 5409 5409 5409 5409 5407 5404 5402 5401 5400 5400 5401 5402 5402 5402 5403 5404 5405
5381 5385 5391 5396 5401 5404 5407 5409 5410 5411 5411 5410 5410 5408 5407 5406 5405 5404 5403 5402 5400 5399 5397 5397 5397 5397 5396 5394 5392 5393 5394 5394 5394 5395 5395 5395 5397 5399
5366 5370 5377 5383 5389 5392 5395 5396 5398 5400 5400 5400 5399 5400 5399 5397 5396 5394 5393 5392 5391 5390 5389 5387 5386 5385 5385 5386 5388 5388 5387 5387 5387 5387 5387 5387 5389 5392
5353 5359 5364 5370 5376 5380 5384 5386 5388 5390 5390 5390 5390 5390 5390 5389 5388 5386 5385 5384 5383 5382 5381 5379 5378 5378 5377 5381 5383 5382 5381 5380 5380 5380 5380 5380 5381 5384
5342 5347 5353 5358 5364 5369 5373 5376 5378 5380 5381 5382 5383 5383 5382 5381 5380 5379 5378 5377 5376 5375 5373 5372 5372 5373 5374 5374 5375 5375 5375 5374 5373 5372 5372 5373 5374 5377
5330 5336 5342 5347 5353 5359 5364 5368 5371 5373 5374 5375 5375 5375 5375 5374 5374 5373 5372 5372 5370 5369 5369 5369 5369 5368 5366 5365 5365 5366 5367 5367 5367 5366 5365 5364 5365 5367
5319 5325 5332 5338 5344 5350 5355 5359 5363 5365 5367 5368 5369 5369 5369 5369 5369 5368 5367 5366 5366 5365 5364 5363 5361 5359 5358 5358 5358 5358 5358 5359 5359 5359 5359 5360 5358 5358
5310 5316 5323 5330 5337 5342 5348 5352 5356 5359 5361 5362 5363 5364 5364 5364 5364 5363 5362 5361 5360 5359 5357 5355 5353 5352 5352 5351 5350 5349 5349 5350 5350 5351 5352 5354 5354 5354